Weather History for Plymouth, NH

Change the Weather History Date:

Wednesday, June 19, 2013

  Actual Average (KLCI) Record (KLCI)
Temperature  
Mean Temperature 58 °F -  
Max Temperature 72 °F 79 °F 96 °F (1994)
Min Temperature 43 °F 57 °F 46 °F (1999)
Degree Days  
Heating Degree Days 8    
Growing Degree Days 8 (Base 50)    
Moisture  
Dew Point 43 °F    
Average Humidity 62    
Maximum Humidity 99    
Minimum Humidity 27    
Precipitation  
Precipitation 0.00 in - - ()
Sea Level Pressure  
Sea Level Pressure 30.03 in    
Wind  
Wind Speed 3 mph (WNW)    
Max Wind Speed 13 mph    
Max Gust Speed 21 mph    
Visibility 9 miles    
Events Fog    
Averages and records for this station are not official NWS values.
T = Trace of Precipitation, MM = Missing Value Source: NWS Daily Summary

Daily Weather History Graph

Daily Weather History Graph

Search for Another Location

Airport:

Trip Planner

Search our weather history database for the weather conditions in past years. The results will help you decide how hot, cold, wet, or windy it might be!

Date:

Astronomy

Jun. 19, 2013 Rise Set
Actual Time 5:04 AM EDT 8:32 PM EDT
Civil Twilight 4:28 AM EDT 9:08 PM EDT
Nautical Twilight 3:41 AM EDT 9:55 PM EDT
Astronomical Twilight 2:41 AM EDT 10:55 PM EDT
Moon 4:16 PM EDT (6/19) 1:54 AM EDT (6/19)
Length of Visible Light 16h 39m
Length of Day
15h 27m
Waxing Gibbous, 80% of the Moon is Illuminated
Jun 19
Waxing Gibbous
Jun 23
Full
Jun 30
Last Quarter
Jul 8
New
Jul 15
First Quarter

Hourly Weather History & Observations

Time (EDT) Temp. Dew Point Humidity Pressure Visibility Wind Dir Wind Speed Gust Speed Precip Events Conditions
12:15 AM 51.3 °F 50.0 °F 95% 29.96 in 10.0 mi Calm Calm - N/A   Clear
12:35 AM 50.2 °F 49.1 °F 96% 29.97 in 7.0 mi Calm Calm - N/A   Clear
12:55 AM 49.3 °F 48.2 °F 96% 29.96 in 7.0 mi Calm Calm - N/A   Clear
1:15 AM 48.6 °F 47.7 °F 97% 29.96 in 1.0 mi Calm Calm - N/A   Mostly Cloudy
1:35 AM 47.8 °F 46.9 °F 97% 29.96 in 0.8 mi Calm Calm - N/A   Overcast
1:55 AM 47.3 °F 46.6 °F 97% 29.96 in 2.5 mi Calm Calm - N/A   Mostly Cloudy
2:15 AM 47.1 °F 46.4 °F 97% 29.96 in 0.5 mi Calm Calm - N/A Fog Fog
2:35 AM 47.7 °F 46.8 °F 97% 29.96 in 1.0 mi Calm Calm - N/A   Overcast
2:55 AM 49.5 °F 48.6 °F 97% 29.96 in 0.5 mi Calm Calm - N/A Fog Fog
3:15 AM 49.1 °F 48.4 °F 97% 29.96 in 1.8 mi Calm Calm - N/A   Overcast
3:35 AM 47.5 °F 46.8 °F 97% 29.96 in 7.0 mi Calm Calm - N/A   Overcast
3:55 AM 47.8 °F 47.3 °F 98% 29.97 in 10.0 mi Calm Calm - N/A   Overcast
4:15 AM 46.8 °F 46.0 °F 97% 29.97 in 7.0 mi Calm Calm - N/A   Mostly Cloudy
4:35 AM 45.5 °F 45.0 °F 98% 29.97 in 5.0 mi Calm Calm - N/A   Scattered Clouds
4:55 AM 45.0 °F 44.4 °F 98% 29.98 in 5.0 mi Calm Calm - N/A   Scattered Clouds
5:15 AM 43.9 °F 43.3 °F 98% 29.98 in 5.0 mi Calm Calm - N/A   Clear
5:35 AM 43.9 °F 43.3 °F 98% 29.99 in 5.0 mi Calm Calm - N/A   Clear
5:55 AM 44.4 °F 43.9 °F 98% 29.99 in 5.0 mi Calm Calm - N/A   Clear
6:15 AM 45.0 °F 44.6 °F 99% 29.99 in 7.0 mi Calm Calm - N/A   Clear
6:35 AM 47.1 °F 46.6 °F 98% 30.00 in 10.0 mi Calm Calm - N/A   Clear
6:55 AM 49.8 °F 49.1 °F 97% 29.99 in 10.0 mi WNW 6.9 mph - N/A   Clear
7:15 AM 52.0 °F 50.4 °F 94% 29.99 in 10.0 mi WNW 8.1 mph - N/A   Clear
7:35 AM 55.0 °F 48.2 °F 78% 30.00 in 10.0 mi WNW 6.9 mph - N/A   Clear
7:55 AM 56.5 °F 47.8 °F 73% 30.00 in 10.0 mi WNW 6.9 mph - N/A   Clear
8:35 AM 59.4 °F 48.0 °F 66% 30.01 in 10.0 mi WNW 4.6 mph - N/A   Clear
8:55 AM 60.8 °F 47.7 °F 62% 30.01 in 10.0 mi WNW 8.1 mph - N/A   Clear
9:15 AM 62.1 °F 47.1 °F 58% 30.01 in 10.0 mi WNW 6.9 mph - N/A   Clear
9:35 AM 63.7 °F 45.9 °F 52% 30.01 in 10.0 mi West 6.9 mph - N/A   Clear
9:55 AM 65.3 °F 40.8 °F 41% 30.01 in 10.0 mi North 5.8 mph - N/A   Clear
10:15 AM 65.7 °F 40.3 °F 39% 30.01 in 10.0 mi WNW 11.5 mph 18.4 mph N/A   Clear
10:35 AM 66.4 °F 42.3 °F 41% 30.02 in 10.0 mi WNW 11.5 mph - N/A   Scattered Clouds
10:55 AM 67.1 °F 39.2 °F 36% 30.02 in 10.0 mi North 5.8 mph - N/A   Clear
11:15 AM 67.3 °F 37.6 °F 34% 30.02 in 10.0 mi NNE 3.5 mph - N/A   Clear
11:35 AM 67.5 °F 37.0 °F 33% 30.03 in 10.0 mi North 5.8 mph - N/A   Clear
11:55 AM 68.0 °F 35.8 °F 31% 30.02 in 10.0 mi NW 4.6 mph - N/A   Clear
12:15 PM 68.9 °F 37.2 °F 31% 30.03 in 10.0 mi North 4.6 mph - N/A   Clear
12:35 PM 68.2 °F 38.3 °F 33% 30.03 in 10.0 mi WNW 8.1 mph - N/A   Clear
12:55 PM 69.3 °F 40.5 °F 35% 30.03 in 10.0 mi WNW 10.4 mph 17.3 mph N/A   Scattered Clouds
1:15 PM 69.4 °F 40.1 °F 34% 30.03 in 10.0 mi West 11.5 mph 18.4 mph N/A   Scattered Clouds
1:35 PM 70.5 °F 39.7 °F 33% 30.02 in 10.0 mi West 10.4 mph 17.3 mph N/A   Scattered Clouds
1:55 PM 70.5 °F 40.1 °F 33% 30.02 in 10.0 mi West 9.2 mph 17.3 mph N/A   Scattered Clouds
2:15 PM 70.9 °F 40.1 °F 33% 30.02 in 10.0 mi West 11.5 mph 20.7 mph N/A   Mostly Cloudy
2:35 PM 71.8 °F 40.5 °F 32% 30.02 in 10.0 mi West 11.5 mph 17.3 mph N/A   Scattered Clouds
2:55 PM 71.8 °F 40.3 °F 32% 30.03 in 10.0 mi West 10.4 mph 17.3 mph N/A   Scattered Clouds
3:15 PM 71.6 °F 39.0 °F 31% 30.03 in 10.0 mi West 9.2 mph 17.3 mph N/A   Clear
3:35 PM 72.0 °F 39.4 °F 31% 30.03 in 10.0 mi WNW 11.5 mph - N/A   Clear
3:55 PM 72.5 °F 39.7 °F 31% 30.03 in 10.0 mi WNW 9.2 mph - N/A   Clear
4:15 PM 72.0 °F 37.6 °F 29% 30.03 in 10.0 mi West 12.7 mph 17.3 mph N/A   Clear
4:35 PM 71.6 °F 36.5 °F 28% 30.04 in 10.0 mi West 9.2 mph 18.4 mph N/A   Clear
4:55 PM 72.0 °F 37.0 °F 28% 30.04 in 10.0 mi West 11.5 mph 17.3 mph N/A   Clear
5:15 PM 71.8 °F 35.8 °F 27% 30.03 in 10.0 mi West 8.1 mph - N/A   Clear
5:35 PM 71.8 °F 36.3 °F 27% 30.04 in 10.0 mi West 9.2 mph - N/A   Clear
5:55 PM 71.6 °F 36.0 °F 27% 30.04 in 10.0 mi West 9.2 mph - N/A   Clear
6:15 PM 71.2 °F 36.5 °F 28% 30.05 in 10.0 mi WNW 8.1 mph - N/A   Clear
6:35 PM 70.7 °F 34.9 °F 27% 30.05 in 10.0 mi NW 6.9 mph - N/A   Clear
6:55 PM 70.5 °F 36.9 °F 29% 30.05 in 10.0 mi WNW 6.9 mph - N/A   Clear
7:15 PM 69.8 °F 36.5 °F 29% 30.06 in 10.0 mi WNW 5.8 mph - N/A   Clear
7:35 PM 68.9 °F 38.1 °F 32% 30.07 in 10.0 mi WNW 3.5 mph - N/A   Clear
7:55 PM 67.6 °F 39.7 °F 36% 30.07 in 10.0 mi Calm Calm - N/A   Clear
8:15 PM 64.8 °F 44.1 °F 47% 30.08 in 10.0 mi Calm Calm - N/A   Clear
8:35 PM 60.1 °F 45.3 °F 58% 30.09 in 10.0 mi Calm Calm - N/A   Clear
8:55 PM 58.8 °F 47.5 °F 66% 30.10 in 10.0 mi Calm Calm - N/A   Clear
9:15 PM 56.1 °F 45.9 °F 68% 30.11 in 10.0 mi Calm Calm - N/A   Clear
9:35 PM 54.5 °F 47.1 °F 76% 30.12 in 10.0 mi NW 3.5 mph - N/A   Clear
9:55 PM 53.2 °F 47.7 °F 81% 30.13 in 10.0 mi Calm Calm - N/A   Clear
10:15 PM 52.2 °F 47.3 °F 83% 30.13 in 10.0 mi Calm Calm - N/A   Clear
10:35 PM 52.3 °F 46.4 °F 80% 30.14 in 10.0 mi Calm Calm - N/A   Clear
10:55 PM 50.9 °F 46.9 °F 86% 30.15 in 10.0 mi Calm Calm - N/A   Clear
11:15 PM 50.2 °F 46.9 °F 89% 30.15 in 10.0 mi Calm Calm - N/A   Clear
11:35 PM 49.5 °F 46.6 °F 90% 30.16 in 10.0 mi Calm Calm - N/A   Clear
11:55 PM 48.4 °F 46.2 °F 92% 30.17 in 10.0 mi Calm Calm - N/A   Clear